TALON11 EPDE-EPRZ

Flight info

Callsign TALON11
Flight time 0h 34m
Altitude 17500
Route EPDE DCT EPDES DCT EPDEG DCT EPDEP DCT EPML DCT EPRZK DCT EPRZN DCT
Aircraft M346/M-S/C

Departure

Time 2026-04-22 15:31
Airport Deblin Military Air Base (EPDE)

Arrival

Time 2026-04-22 16:05
Airport Rzeszów-Jasionka Airport (EPRZ)
Time Latitude Longitude Altitude Speed Heading
2026-04-22 15:24 51.54562 21.89754 398 ft 0 kts 31°
2026-04-22 15:27 51.54569 21.89762 394 ft 4 kts 31°
2026-04-22 15:27 51.54569 21.89792 396 ft 10 kts 118°
2026-04-22 15:28 51.54531 21.89915 393 ft 10 kts 91°
2026-04-22 15:28 51.54564 21.89980 396 ft 6 kts 64°
2026-04-22 15:28 51.54549 21.90062 393 ft 14 kts 121°
2026-04-22 15:28 51.54480 21.90248 395 ft 24 kts 120°
2026-04-22 15:29 51.54422 21.90420 394 ft 9 kts 85°
2026-04-22 15:29 51.54458 21.90474 396 ft 6 kts 32°
2026-04-22 15:29 51.54521 21.90533 394 ft 15 kts 30°
2026-04-22 15:30 51.54607 21.90568 394 ft 0 kts 303°
2026-04-22 15:30 51.54612 21.90555 394 ft 20 kts 300°
2026-04-22 15:30 51.55008 21.89496 447 ft 186 kts 302°
2026-04-22 15:30 51.55842 21.87241 961 ft 265 kts 301°
2026-04-22 15:31 51.55888 21.84659 1449 ft 244 kts 224°
2026-04-22 15:31 51.54962 21.84083 1669 ft 255 kts 182°
2026-04-22 15:31 51.54298 21.84355 1628 ft 265 kts 148°
2026-04-22 15:31 51.52764 21.86259 1663 ft 289 kts 149°
2026-04-22 15:32 51.50964 21.87907 1950 ft 300 kts 150°
2026-04-22 15:32 51.49095 21.89681 2057 ft 325 kts 150°
2026-04-22 15:32 51.46996 21.91229 2178 ft 338 kts 163°
2026-04-22 15:32 51.44696 21.92036 2537 ft 338 kts 171°
2026-04-22 15:33 51.42345 21.92688 2718 ft 350 kts 172°
2026-04-22 15:33 51.39878 21.93310 2695 ft 370 kts 173°
2026-04-22 15:33 51.37331 21.93870 6288 ft 362 kts 174°
2026-04-22 15:33 51.34834 21.94329 10702 ft 359 kts 174°
2026-04-22 15:34 51.32379 21.94778 14641 ft 353 kts 172°
2026-04-22 15:34 51.29860 21.95235 16917 ft 398 kts 173°
2026-04-22 15:34 51.26852 21.94859 16927 ft 471 kts 194°
2026-04-22 15:34 51.23662 21.92731 17040 ft 522 kts 208°
2026-04-22 15:35 51.20525 21.89679 17269 ft 523 kts 212°
2026-04-22 15:35 51.17453 21.86600 17639 ft 523 kts 212°
2026-04-22 15:35 51.14281 21.83656 17618 ft 532 kts 207°
2026-04-22 15:35 51.10880 21.81229 17584 ft 537 kts 200°
2026-04-22 15:36 51.07269 21.79640 17516 ft 539 kts 189°
2026-04-22 15:36 51.03594 21.78880 17478 ft 542 kts 184°
2026-04-22 15:36 50.99829 21.78455 17506 ft 539 kts 182°
2026-04-22 15:36 50.96080 21.78112 17638 ft 539 kts 181°
2026-04-22 15:37 50.92326 21.77917 17728 ft 538 kts 179°
2026-04-22 15:37 50.88585 21.78018 17770 ft 538 kts 176°
2026-04-22 15:37 50.84851 21.78384 17758 ft 539 kts 173°
2026-04-22 15:37 50.81115 21.78942 17719 ft 539 kts 172°
2026-04-22 15:38 50.77383 21.79646 17696 ft 540 kts 171°
2026-04-22 15:38 50.69890 21.79599 17576 ft 546 kts 194°
2026-04-22 15:38 50.66265 21.77643 17091 ft 556 kts 197°
2026-04-22 15:39 50.62632 21.75446 16780 ft 555 kts 209°
2026-04-22 15:39 50.60351 21.71395 15419 ft 463 kts 250°
2026-04-22 15:39 50.60264 21.66912 10514 ft 345 kts 301°
2026-04-22 15:39 50.61727 21.65211 6102 ft 228 kts 350°
2026-04-22 15:40 50.63127 21.65918 2940 ft 242 kts 42°
2026-04-22 15:40 50.63955 21.68414 1765 ft 262 kts 75°
2026-04-22 15:40 50.63723 21.71099 1746 ft 252 kts 126°
2026-04-22 15:40 50.62205 21.72471 2263 ft 269 kts 179°
2026-04-22 15:41 50.60210 21.71980 2195 ft 307 kts 196°
2026-04-22 15:41 50.58129 21.70790 3700 ft 338 kts 213°
2026-04-22 15:41 50.56250 21.68240 4908 ft 374 kts 232°
2026-04-22 15:41 50.54568 21.64956 5689 ft 388 kts 234°
2026-04-22 15:42 50.52929 21.61685 5630 ft 374 kts 234°
2026-04-22 15:42 50.51325 21.58588 5596 ft 366 kts 230°
2026-04-22 15:42 50.49484 21.55859 5515 ft 364 kts 223°
2026-04-22 15:42 50.47473 21.53447 5397 ft 363 kts 218°
2026-04-22 15:43 50.45358 21.51285 5333 ft 361 kts 214°
2026-04-22 15:43 50.43231 21.49204 5328 ft 359 kts 214°
2026-04-22 15:43 50.41034 21.47352 5363 ft 358 kts 206°
2026-04-22 15:43 50.38695 21.45930 5186 ft 364 kts 202°
2026-04-22 15:44 50.36302 21.44615 5170 ft 358 kts 201°
2026-04-22 15:44 50.33982 21.43355 5504 ft 351 kts 201°
2026-04-22 15:44 50.31659 21.42119 5452 ft 354 kts 200°
2026-04-22 15:44 50.29267 21.41321 5419 ft 356 kts 186°
2026-04-22 15:45 50.26829 21.41668 5639 ft 355 kts 166°
2026-04-22 15:45 50.24664 21.43445 5759 ft 352 kts 138°
2026-04-22 15:45 50.23123 21.46423 5709 ft 356 kts 120°
2026-04-22 15:45 50.22119 21.49919 5429 ft 338 kts 100°
2026-04-22 15:46 50.22045 21.53407 4238 ft 313 kts 80°
2026-04-22 15:46 50.22472 21.56622 3275 ft 292 kts 71°
2026-04-22 15:46 50.23005 21.59554 2523 ft 271 kts 70°
2026-04-22 15:46 50.23528 21.62260 2001 ft 246 kts 69°
2026-04-22 15:47 50.24002 21.64764 1717 ft 228 kts 70°
2026-04-22 15:47 50.24486 21.67449 1629 ft 289 kts 70°
2026-04-22 15:47 50.25114 21.70667 1878 ft 316 kts 70°
2026-04-22 15:47 50.25534 21.73760 1752 ft 276 kts 85°
2026-04-22 15:48 50.25189 21.76517 1619 ft 245 kts 112°
2026-04-22 15:48 50.24289 21.78585 1382 ft 218 kts 126°
2026-04-22 15:48 50.23414 21.80408 1363 ft 205 kts 124°
2026-04-22 15:48 50.22608 21.82322 1363 ft 219 kts 121°
2026-04-22 15:49 50.21762 21.84401 1450 ft 234 kts 121°
2026-04-22 15:49 50.20878 21.86503 1514 ft 231 kts 122°
2026-04-22 15:49 50.19982 21.88603 1514 ft 232 kts 122°
2026-04-22 15:49 50.19058 21.90680 1471 ft 234 kts 122°
2026-04-22 15:50 50.18131 21.92755 1460 ft 231 kts 123°
2026-04-22 15:50 50.17258 21.94786 1446 ft 215 kts 121°
2026-04-22 15:50 50.16479 21.96687 1415 ft 204 kts 118°
2026-04-22 15:50 50.15867 21.98649 1419 ft 200 kts 110°
2026-04-22 15:51 50.15346 22.00601 1419 ft 193 kts 115°
2026-04-22 15:51 50.14489 22.02126 1455 ft 182 kts 159°
2026-04-22 15:51 50.13444 22.01800 1361 ft 158 kts 236°
2026-04-22 15:51 50.12981 22.00047 1498 ft 183 kts 259°
2026-04-22 15:52 50.12756 21.98219 1302 ft 158 kts 266°
2026-04-22 15:52 50.12603 21.96656 1169 ft 139 kts 266°
2026-04-22 15:52 50.12488 21.95163 1365 ft 133 kts 286°
2026-04-22 15:52 50.13152 21.95479 1759 ft 213 kts 82°
2026-04-22 15:53 50.12966 21.98304 1549 ft 259 kts 95°
2026-04-22 15:53 50.12772 22.00430 1190 ft 172 kts 94°
2026-04-22 15:53 50.12616 22.02247 1172 ft 169 kts 94°
2026-04-22 15:53 50.12471 22.04088 1171 ft 175 kts 92°
2026-04-22 15:54 50.12315 22.06007 1199 ft 165 kts 101°
2026-04-22 15:54 50.11580 22.07157 1214 ft 157 kts 175°
2026-04-22 15:54 50.10879 22.06382 1094 ft 118 kts 276°
2026-04-22 15:54 50.10947 22.04899 764 ft 135 kts 277°
2026-04-22 15:55 50.10970 22.03733 682 ft 102 kts 271°
2026-04-22 15:55 50.10997 22.01922 998 ft 214 kts 273°
2026-04-22 15:55 50.11023 21.99491 1319 ft 209 kts 283°
2026-04-22 15:55 50.11807 21.98106 1303 ft 160 kts 349°
2026-04-22 15:56 50.12672 21.98827 1100 ft 150 kts 63°
2026-04-22 15:56 50.12723 22.00436 1106 ft 157 kts 92°
2026-04-22 15:56 50.12611 22.02264 1415 ft 169 kts 91°
2026-04-22 15:56 50.12503 22.03978 1545 ft 161 kts 91°
2026-04-22 15:57 50.12374 22.05800 1531 ft 167 kts 92°
2026-04-22 15:57 50.11863 22.07155 1223 ft 135 kts 156°
2026-04-22 15:57 50.11055 22.07052 923 ft 122 kts 230°
2026-04-22 15:57 50.10928 22.05802 920 ft 132 kts 281°
2026-04-22 15:58 50.10953 22.04554 705 ft 107 kts 276°
2026-04-22 15:58 50.10973 22.03525 687 ft 131 kts 271°
2026-04-22 15:58 50.10990 22.01516 1067 ft 234 kts 273°
2026-04-22 15:58 50.11300 21.98938 1480 ft 235 kts 333°
2026-04-22 15:59 50.12284 21.99908 1447 ft 188 kts 83°
2026-04-22 15:59 50.12290 22.01724 1386 ft 156 kts 87°
2026-04-22 15:59 50.12264 22.03606 1467 ft 186 kts 87°
2026-04-22 15:59 50.12236 22.05742 1482 ft 221 kts 87°
2026-04-22 16:00 50.12215 22.07391 1558 ft 201 kts 97°
2026-04-22 16:00 50.11106 22.08566 1341 ft 155 kts 218°
2026-04-22 16:00 50.10919 22.07060 1170 ft 143 kts 282°
2026-04-22 16:00 50.10940 22.05639 844 ft 132 kts 273°
2026-04-22 16:01 50.10964 22.04267 678 ft 96 kts 272°
2026-04-22 16:01 50.10978 22.03085 709 ft 162 kts 269°
2026-04-22 16:01 50.11008 22.01181 1183 ft 166 kts 274°
2026-04-22 16:01 50.11041 21.99324 1293 ft 181 kts 275°
2026-04-22 16:02 50.11929 21.98351 1341 ft 218 kts 21°
2026-04-22 16:02 50.12482 22.00354 1499 ft 202 kts 85°
2026-04-22 16:02 50.12480 22.02406 1452 ft 180 kts 87°
2026-04-22 16:02 50.12434 22.04214 1463 ft 152 kts 88°
2026-04-22 16:03 50.12370 22.06092 1432 ft 193 kts 90°
2026-04-22 16:03 50.12228 22.08097 1406 ft 171 kts 120°
2026-04-22 16:03 50.11669 22.08609 1272 ft 135 kts 187°
2026-04-22 16:03 50.10989 22.07851 1229 ft 124 kts 255°
2026-04-22 16:04 50.10931 22.06503 949 ft 131 kts 277°
2026-04-22 16:04 50.10944 22.05172 782 ft 111 kts 277°
2026-04-22 16:04 50.10966 22.04107 679 ft 77 kts 271°
2026-04-22 16:04 50.10977 22.03418 688 ft 52 kts 270°
2026-04-22 16:05 50.10982 22.02919 692 ft 40 kts 270°
2026-04-22 16:05 50.11019 22.02738 689 ft 12 kts 349°
2026-04-22 16:05 50.11090 22.02739 690 ft 9 kts
2026-04-22 16:05 50.11112 22.02740 686 ft 0 kts
2026-04-22 16:06 50.11161 22.02741 689 ft 21 kts 360°
2026-04-22 16:06 50.11306 22.02757 689 ft 16 kts 31°
2026-04-22 16:06 50.11302 22.02869 688 ft 11 kts 147°
2026-04-22 16:07 50.11227 22.02878 689 ft 11 kts 181°
2026-04-22 16:07 50.11213 22.02878 687 ft 0 kts 180°